N172SP KISM-KLAL

Flight info

Callsign N172SP
Flight time 0h 23m
Altitude 4000
Route VPMNO
Aircraft C172/L-SFG/C

Departure

Time 2026-04-22 00:15
Airport Kissimmee Gateway Airport (KISM)

Arrival

Time 2026-04-22 00:38
Airport Lakeland Linder International Airport (KLAL)
Time Latitude Longitude Altitude Speed Heading
2026-04-22 00:03 28.29369 -81.43755 79 ft 0 kts 200°
2026-04-22 00:09 28.29362 -81.43758 79 ft 2 kts 211°
2026-04-22 00:09 28.29382 -81.43789 78 ft 9 kts 308°
2026-04-22 00:09 28.29413 -81.43875 78 ft 11 kts 278°
2026-04-22 00:09 28.29464 -81.43928 77 ft 10 kts 328°
2026-04-22 00:10 28.29532 -81.43977 76 ft 12 kts 330°
2026-04-22 00:10 28.29597 -81.43986 76 ft 8 kts 35°
2026-04-22 00:10 28.29622 -81.43994 76 ft 0 kts 275°
2026-04-22 00:12 28.29614 -81.44012 76 ft 6 kts 241°
2026-04-22 00:12 28.29636 -81.44050 76 ft 6 kts 329°
2026-04-22 00:12 28.29659 -81.44089 76 ft 0 kts 255°
2026-04-22 00:13 28.29658 -81.44091 76 ft 0 kts 251°
2026-04-22 00:13 28.29648 -81.44114 76 ft 6 kts 237°
2026-04-22 00:13 28.29617 -81.44167 77 ft 3 kts 177°
2026-04-22 00:13 28.29587 -81.44143 77 ft 12 kts 147°
2026-04-22 00:14 28.29414 -81.44022 78 ft 48 kts 146°
2026-04-22 00:14 28.29042 -81.43785 190 ft 64 kts 151°
2026-04-22 00:14 28.28607 -81.43595 359 ft 68 kts 155°
2026-04-22 00:14 28.28099 -81.43571 518 ft 79 kts 176°
2026-04-22 00:15 28.27545 -81.43671 686 ft 81 kts 177°
2026-04-22 00:15 28.26955 -81.43763 804 ft 88 kts 175°
2026-04-22 00:15 28.26326 -81.43855 928 ft 94 kts 176°
2026-04-22 00:15 28.25665 -81.43952 1079 ft 95 kts 175°
2026-04-22 00:16 28.25004 -81.44053 1221 ft 96 kts 175°
2026-04-22 00:16 28.24335 -81.44167 1362 ft 98 kts 175°
2026-04-22 00:16 28.23691 -81.44546 1490 ft 113 kts 215°
2026-04-22 00:16 28.23301 -81.45355 1618 ft 119 kts 246°
2026-04-22 00:17 28.23055 -81.46248 1756 ft 119 kts 248°
2026-04-22 00:17 28.22818 -81.47147 1904 ft 118 kts 249°
2026-04-22 00:17 28.22585 -81.48035 2055 ft 118 kts 249°
2026-04-22 00:17 28.22508 -81.48969 2194 ft 119 kts 273°
2026-04-22 00:18 28.22553 -81.49891 2341 ft 118 kts 273°
2026-04-22 00:18 28.22613 -81.50825 2487 ft 117 kts 276°
2026-04-22 00:18 28.22687 -81.51708 2689 ft 110 kts 277°
2026-04-22 00:18 28.22765 -81.52546 2894 ft 104 kts 277°
2026-04-22 00:19 28.22843 -81.53342 3104 ft 98 kts 277°
2026-04-22 00:19 28.22917 -81.54085 3312 ft 92 kts 277°
2026-04-22 00:19 28.22984 -81.54784 3480 ft 91 kts 276°
2026-04-22 00:19 28.23064 -81.55551 3517 ft 108 kts 279°
2026-04-22 00:20 28.23172 -81.56464 3493 ft 125 kts 280°
2026-04-22 00:20 28.23294 -81.57480 3418 ft 132 kts 280°
2026-04-22 00:20 28.23416 -81.58502 3299 ft 130 kts 280°
2026-04-22 00:20 28.23530 -81.59509 3188 ft 129 kts 280°
2026-04-22 00:21 28.23657 -81.60520 3068 ft 129 kts 283°
2026-04-22 00:21 28.23801 -81.61535 2953 ft 129 kts 281°
2026-04-22 00:21 28.23921 -81.62544 2839 ft 130 kts 280°
2026-04-22 00:21 28.24035 -81.63563 2714 ft 131 kts 279°
2026-04-22 00:22 28.24147 -81.64593 2553 ft 133 kts 279°
2026-04-22 00:22 28.24262 -81.65647 2386 ft 134 kts 278°
2026-04-22 00:22 28.24374 -81.66699 2208 ft 135 kts 278°
2026-04-22 00:22 28.24488 -81.67765 2034 ft 136 kts 278°
2026-04-22 00:23 28.24602 -81.68829 1868 ft 136 kts 278°
2026-04-22 00:23 28.24731 -81.69893 1696 ft 135 kts 287°
2026-04-22 00:23 28.24946 -81.70930 1523 ft 136 kts 278°
2026-04-22 00:23 28.24822 -81.71967 1350 ft 133 kts 248°
2026-04-22 00:24 28.24504 -81.72943 1174 ft 131 kts 245°
2026-04-22 00:24 28.24169 -81.73900 1002 ft 129 kts 245°
2026-04-22 00:24 28.23839 -81.74837 828 ft 128 kts 245°
2026-04-22 00:24 28.23524 -81.75733 847 ft 117 kts 242°
2026-04-22 00:25 28.23208 -81.76598 944 ft 120 kts 242°
2026-04-22 00:25 28.22880 -81.77485 998 ft 123 kts 242°
2026-04-22 00:25 28.22545 -81.78397 1044 ft 125 kts 243°
2026-04-22 00:25 28.22211 -81.79309 1093 ft 126 kts 243°
2026-04-22 00:26 28.21812 -81.80174 1116 ft 116 kts 219°
2026-04-22 00:26 28.21173 -81.80576 1119 ft 97 kts 179°
2026-04-22 00:26 28.20508 -81.80665 1125 ft 99 kts 173°
2026-04-22 00:26 28.19806 -81.80730 1122 ft 103 kts 172°
2026-04-22 00:27 28.19073 -81.80769 1121 ft 104 kts 171°
2026-04-22 00:27 28.18355 -81.80792 1121 ft 102 kts 169°
2026-04-22 00:27 28.17654 -81.80801 1122 ft 101 kts 167°
2026-04-22 00:27 28.16946 -81.80801 1123 ft 100 kts 168°
2026-04-22 00:28 28.16247 -81.80813 1123 ft 102 kts 172°
2026-04-22 00:28 28.15533 -81.80943 1122 ft 105 kts 180°
2026-04-22 00:28 28.14818 -81.81164 1119 ft 106 kts 185°
2026-04-22 00:28 28.14110 -81.81432 1126 ft 107 kts 188°
2026-04-22 00:29 28.13432 -81.81809 1123 ft 111 kts 199°
2026-04-22 00:29 28.12784 -81.82313 1123 ft 114 kts 210°
2026-04-22 00:29 28.12182 -81.82911 1126 ft 117 kts 217°
2026-04-22 00:29 28.11674 -81.83649 1121 ft 121 kts 233°
2026-04-22 00:30 28.11316 -81.84519 1123 ft 121 kts 243°
2026-04-22 00:30 28.10983 -81.85397 1124 ft 121 kts 240°
2026-04-22 00:30 28.10630 -81.86262 1124 ft 121 kts 240°
2026-04-22 00:30 28.10277 -81.87133 1123 ft 121 kts 240°
2026-04-22 00:31 28.09941 -81.87978 1174 ft 115 kts 240°
2026-04-22 00:31 28.09602 -81.88821 1198 ft 119 kts 239°
2026-04-22 00:31 28.09255 -81.89686 1205 ft 122 kts 240°
2026-04-22 00:31 28.08904 -81.90570 1206 ft 124 kts 240°
2026-04-22 00:32 28.08552 -81.91457 1206 ft 125 kts 240°
2026-04-22 00:32 28.08228 -81.92387 1215 ft 126 kts 251°
2026-04-22 00:32 28.08011 -81.93362 1184 ft 127 kts 251°
2026-04-22 00:32 28.07787 -81.94296 1212 ft 122 kts 253°
2026-04-22 00:33 28.07723 -81.95272 1178 ft 127 kts 270°
2026-04-22 00:33 28.07730 -81.96272 1174 ft 126 kts 270°
2026-04-22 00:33 28.07740 -81.97247 1185 ft 123 kts 270°
2026-04-22 00:33 28.07604 -81.98194 1175 ft 120 kts 236°
2026-04-22 00:34 28.07118 -81.98935 1195 ft 115 kts 223°
2026-04-22 00:34 28.06631 -81.99652 1175 ft 117 kts 224°
2026-04-22 00:34 28.06133 -82.00375 1198 ft 115 kts 223°
2026-04-22 00:34 28.05645 -82.01097 1201 ft 116 kts 225°
2026-04-22 00:35 28.05128 -82.01803 1194 ft 114 kts 213°
2026-04-22 00:35 28.04454 -82.02023 1175 ft 99 kts 166°
2026-04-22 00:35 28.03765 -82.02040 1201 ft 98 kts 171°
2026-04-22 00:35 28.03081 -82.02104 1213 ft 98 kts 172°
2026-04-22 00:36 28.02405 -82.02190 1232 ft 97 kts 175°
2026-04-22 00:36 28.01720 -82.02304 1193 ft 102 kts 174°
2026-04-22 00:36 28.01008 -82.02415 1208 ft 100 kts 175°
2026-04-22 00:36 28.00313 -82.02502 1201 ft 101 kts 175°
2026-04-22 00:37 27.99772 -82.02974 1079 ft 115 kts 255°
2026-04-22 00:37 27.99747 -82.03867 864 ft 107 kts 252°
2026-04-22 00:37 27.99294 -82.04269 700 ft 73 kts 153°
2026-04-22 00:37 27.99064 -82.03802 411 ft 70 kts 97°
2026-04-22 00:38 27.99034 -82.03276 176 ft 66 kts 91°
2026-04-22 00:38 27.99035 -82.02837 125 ft 45 kts 89°
2026-04-22 00:38 27.99037 -82.02496 125 ft 42 kts 89°
2026-04-22 00:38 27.99037 -82.02144 128 ft 46 kts 89°
2026-04-22 00:39 27.99038 -82.01762 132 ft 48 kts 90°
2026-04-22 00:39 27.99039 -82.01386 134 ft 44 kts 89°
2026-04-22 00:39 27.99040 -82.01079 135 ft 38 kts 89°
2026-04-22 00:39 27.99042 -82.00794 136 ft 27 kts 91°
2026-04-22 00:40 27.99012 -82.00756 135 ft 3 kts 250°
2026-04-22 00:40 27.99010 -82.00763 135 ft 0 kts 199°
2026-04-22 00:40 27.98953 -82.00765 135 ft 19 kts 176°
2026-04-22 00:40 27.98778 -82.00757 135 ft 27 kts 178°
2026-04-22 00:41 27.98734 -82.00843 135 ft 14 kts 270°
2026-04-22 00:41 27.98734 -82.01017 133 ft 31 kts 270°
2026-04-22 00:41 27.98728 -82.01269 132 ft 17 kts 243°
2026-04-22 00:41 27.98662 -82.01268 132 ft 12 kts 164°
2026-04-22 00:42 27.98637 -82.01265 132 ft 0 kts 213°
2026-04-22 00:50 27.98623 -82.01272 132 ft 10 kts 187°